Change the Weather History Date:

Thursday, January 24, 2013

  Actual Average Record
Temperature  
Mean Temperature 30 °F -  
Max Temperature 35 °F 52 °F 79 °F (1981)
Min Temperature 26 °F 26 °F 0 °F (1963)
Degree Days  
Heating Degree Days 34    
Moisture  
Dew Point 17 °F    
Average Humidity 62    
Maximum Humidity 69    
Minimum Humidity 55    
Precipitation  
Precipitation 0.00 in - - ()
Sea Level Pressure  
Sea Level Pressure 30.24 in    
Wind  
Wind Speed 13 mph (NE)    
Max Wind Speed 20 mph    
Max Gust Speed 24 mph    
Visibility 10 miles    
Events      
Averages and records for this station are not official NWS values.
T = Trace of Precipitation, MM = Missing Value Source: NWS Daily Summary

Daily Weather History Graph

Daily Weather History Graph

Search for Another Location

Airport or City:

Trip Planner

Search our weather history database for the weather conditions in past years. The results will help you decide how hot, cold, wet, or windy it might be!

Date:

Astronomy

Jan. 24, 2013 Rise Set
Actual Time 7:42 AM CST 5:51 PM CST
Civil Twilight 7:14 AM CST 6:19 PM CST
Nautical Twilight 6:43 AM CST 6:51 PM CST
Astronomical Twilight 6:12 AM CST 7:21 PM CST
Moon 3:56 PM CST (1/24) 5:39 AM CST (1/24)
Length of Visible Light 11h 05m
Length of Day
10h 09m
Waxing Gibbous, 94% of the Moon is Illuminated
Jan 24
Waxing Gibbous
Jan 26
Full
Feb 3
Last Quarter
Feb 10
New
Feb 17
First Quarter

Hourly Weather History & Observations

Time (CST) Temp. Windchill Dew Point Humidity Pressure Visibility Wind Dir Wind Speed Gust Speed Precip Events Conditions
12:10 AM 35.6 °F 24.8 °F 23.0 °F 60% 30.26 in 10.0 mi NE 19.6 mph - N/A   Overcast
12:30 AM 35.6 °F 25.5 °F 21.2 °F 56% 30.28 in 10.0 mi NNE 17.3 mph 24.2 mph N/A   Overcast
12:50 AM 35.6 °F 25.2 °F 21.2 °F 56% 30.29 in 10.0 mi NE 18.4 mph 23.0 mph N/A   Overcast
1:10 AM 33.8 °F 22.8 °F 21.2 °F 60% 30.28 in 10.0 mi NE 18.4 mph 21.9 mph N/A   Overcast
1:30 AM 32.0 °F 21.2 °F 19.4 °F 60% 30.27 in 10.0 mi NE 16.1 mph - N/A   Overcast
1:50 AM 32.0 °F 21.6 °F 19.4 °F 60% 30.28 in 10.0 mi NE 15.0 mph 18.4 mph N/A   Overcast
2:10 AM 32.0 °F 20.1 °F 19.4 °F 60% 30.28 in 10.0 mi NE 19.6 mph 23.0 mph N/A   Overcast
2:30 AM 32.0 °F 20.8 °F 19.4 °F 60% 30.28 in 10.0 mi NE 17.3 mph 24.2 mph N/A   Overcast
2:50 AM 30.2 °F 19.8 °F 17.6 °F 60% 30.28 in 10.0 mi NE 13.8 mph - N/A   Overcast
3:10 AM 30.2 °F 18.9 °F 17.6 °F 60% 30.29 in 10.0 mi NE 16.1 mph 21.9 mph N/A   Overcast
3:30 AM 28.4 °F 17.5 °F 17.6 °F 64% 30.30 in 10.0 mi NE 13.8 mph - N/A   Overcast
3:50 AM 28.4 °F 18.5 °F 17.6 °F 64% 30.29 in 10.0 mi NE 11.5 mph - N/A   Overcast
4:10 AM 28.4 °F 17.5 °F 17.6 °F 64% 30.28 in 10.0 mi NE 13.8 mph - N/A   Overcast
4:30 AM 26.6 °F 15.7 °F 17.6 °F 69% 30.29 in 10.0 mi NE 12.7 mph - N/A   Overcast
4:50 AM 26.6 °F 14.7 °F 17.6 °F 69% 30.29 in 10.0 mi NNE 15.0 mph - N/A   Overcast
5:10 AM 26.6 °F 14.7 °F 17.6 °F 69% 30.29 in 10.0 mi NE 15.0 mph - N/A   Overcast
5:30 AM 26.6 °F 15.7 °F 15.8 °F 64% 30.28 in 10.0 mi NE 12.7 mph - N/A   Overcast
5:50 AM 26.6 °F 14.7 °F 17.6 °F 69% 30.28 in 10.0 mi NE 15.0 mph - N/A   Overcast
6:10 AM 26.6 °F 15.7 °F 15.8 °F 64% 30.29 in 10.0 mi NE 12.7 mph - N/A   Overcast
6:30 AM 26.6 °F 14.7 °F 15.8 °F 64% 30.29 in 10.0 mi NE 15.0 mph 19.6 mph N/A   Overcast
6:50 AM 26.6 °F 15.2 °F 14.0 °F 59% 30.29 in 10.0 mi NE 13.8 mph - N/A   Overcast
7:10 AM 26.6 °F 13.8 °F 14.0 °F 59% 30.28 in 10.0 mi NE 17.3 mph - N/A   Overcast
7:50 AM 26.6 °F 14.7 °F 14.0 °F 59% 30.31 in 10.0 mi NE 15.0 mph - N/A   Overcast
8:10 AM 26.6 °F 15.7 °F 14.0 °F 59% 30.31 in 10.0 mi NE 12.7 mph - N/A   Overcast
8:30 AM 26.6 °F 14.7 °F 14.0 °F 59% 30.30 in 10.0 mi NE 15.0 mph - N/A   Overcast
8:50 AM 26.6 °F 15.2 °F 14.0 °F 59% 30.29 in 10.0 mi NE 13.8 mph 17.3 mph N/A   Overcast
9:10 AM 26.6 °F 15.2 °F 14.0 °F 59% 30.30 in 10.0 mi NE 13.8 mph - N/A   Overcast
9:30 AM 26.6 °F 15.2 °F 14.0 °F 59% 30.30 in 10.0 mi NNE 13.8 mph - N/A   Overcast
9:50 AM 26.6 °F 15.7 °F 14.0 °F 59% 30.30 in 10.0 mi NNE 12.7 mph 18.4 mph N/A   Overcast
10:10 AM 26.6 °F 16.8 °F 14.0 °F 59% 30.31 in 10.0 mi NNE 10.4 mph - N/A   Overcast
10:30 AM 28.4 °F 18.5 °F 14.0 °F 55% 30.32 in 10.0 mi NNE 11.5 mph - N/A   Overcast
10:50 AM 28.4 °F 19.1 °F 14.0 °F 55% 30.32 in 10.0 mi NNE 10.4 mph - N/A   Overcast
11:10 AM 28.4 °F 18.5 °F 14.0 °F 55% 30.33 in 10.0 mi NE 11.5 mph - N/A   Overcast
11:30 AM 28.4 °F 17.5 °F 14.0 °F 55% 30.33 in 10.0 mi NNE 13.8 mph - N/A   Overcast
11:50 AM 28.4 °F 17.5 °F 14.0 °F 55% 30.30 in 10.0 mi NNE 13.8 mph - N/A   Overcast
12:10 PM 28.4 °F 17.5 °F 14.0 °F 55% 30.30 in 10.0 mi NE 13.8 mph - N/A   Overcast
12:30 PM 28.4 °F 18.5 °F 14.0 °F 55% 30.28 in 10.0 mi NE 11.5 mph - N/A   Overcast
12:50 PM 28.4 °F 18.5 °F 14.0 °F 55% 30.26 in 10.0 mi NE 11.5 mph 16.1 mph N/A   Overcast
1:30 PM 28.4 °F 18.5 °F 14.0 °F 55% 30.24 in 10.0 mi NNE 11.5 mph - N/A   Overcast
1:50 PM 28.4 °F 19.1 °F 14.0 °F 55% 30.22 in 9.0 mi NNE 10.4 mph - N/A   Overcast
2:10 PM 28.4 °F 21.2 °F 14.0 °F 55% 30.21 in 9.0 mi ENE 6.9 mph - N/A   Overcast
2:30 PM 28.4 °F 19.7 °F 14.0 °F 55% 30.20 in 9.0 mi NE 9.2 mph - N/A   Overcast
2:50 PM 26.6 °F 19.1 °F 15.8 °F 64% 30.20 in 9.0 mi NE 6.9 mph - N/A   Overcast
3:10 PM 28.4 °F 22.2 °F 14.0 °F 55% 30.20 in 9.0 mi NNE 5.8 mph - N/A   Overcast
3:30 PM 28.4 °F 19.7 °F 15.8 °F 59% 30.20 in 10.0 mi NE 9.2 mph - N/A   Overcast
3:50 PM 28.4 °F 24.6 °F 15.8 °F 59% 30.19 in 9.0 mi NNE 3.5 mph - N/A   Overcast
4:10 PM 28.4 °F 18.5 °F 15.8 °F 59% 30.14 in 9.0 mi ENE 11.5 mph - N/A   Overcast
4:50 PM 28.4 °F 24.6 °F 15.8 °F 59% 30.17 in 9.0 mi SE 3.5 mph - N/A   Overcast
5:10 PM 28.4 °F 24.6 °F 15.8 °F 59% 30.16 in 9.0 mi ESE 3.5 mph - N/A   Overcast
5:30 PM 28.4 °F - 15.8 °F 59% 30.17 in 8.0 mi Calm Calm - N/A   Overcast
5:50 PM 28.4 °F - 17.6 °F 64% 30.16 in 10.0 mi Calm Calm - N/A   Overcast
6:10 PM 28.4 °F - 17.6 °F 64% 30.16 in 10.0 mi Calm Calm - N/A   Overcast
6:30 PM 28.4 °F 24.6 °F 17.6 °F 64% 30.17 in 10.0 mi WSW 3.5 mph - N/A   Overcast
6:50 PM 28.4 °F 24.6 °F 17.6 °F 64% 30.18 in 10.0 mi SSW 3.5 mph - N/A   Overcast
7:10 PM 28.4 °F 24.6 °F 17.6 °F 64% 30.18 in 10.0 mi West 3.5 mph - N/A   Overcast
7:30 PM 28.4 °F 24.6 °F 17.6 °F 64% 30.16 in 9.0 mi WSW 3.5 mph - N/A   Overcast
7:50 PM 28.4 °F - 17.6 °F 64% 30.15 in 10.0 mi Calm Calm - N/A   Overcast
8:10 PM 28.4 °F - 19.4 °F 69% 30.16 in 10.0 mi Calm Calm - N/A   Overcast
8:30 PM 28.4 °F - 19.4 °F 69% 30.15 in 9.0 mi Calm Calm - N/A   Overcast
8:50 PM 28.4 °F 24.6 °F 19.4 °F 69% 30.16 in 8.0 mi NW 3.5 mph - N/A   Overcast
9:10 PM 28.4 °F 24.6 °F 19.4 °F 69% 30.16 in 9.0 mi NW 3.5 mph - N/A   Overcast
9:30 PM 28.4 °F 24.6 °F 19.4 °F 69% 30.15 in 10.0 mi North 3.5 mph - N/A   Overcast
9:50 PM 28.4 °F 23.3 °F 19.4 °F 69% 30.14 in 9.0 mi NNE 4.6 mph - N/A   Overcast
10:10 PM 28.4 °F 23.3 °F 19.4 °F 69% 30.15 in 10.0 mi NE 4.6 mph - N/A   Overcast
10:30 PM 28.4 °F 24.6 °F 19.4 °F 69% 30.15 in 9.0 mi NNE 3.5 mph - N/A   Overcast
10:50 PM 28.4 °F 24.6 °F 19.4 °F 69% 30.16 in 9.0 mi NNE 3.5 mph - N/A   Overcast
11:10 PM 28.4 °F 22.2 °F 19.4 °F 69% 30.16 in 9.0 mi North 5.8 mph - N/A   Overcast
11:30 PM 28.4 °F 22.2 °F 19.4 °F 69% 30.16 in 9.0 mi North 5.8 mph - N/A   Overcast
11:50 PM 28.4 °F 24.6 °F 19.4 °F 69% 30.15 in 9.0 mi NNE 3.5 mph - N/A   Overcast